Device Time, Air Fuel Ratio(Commanded)(:1),Air Fuel Ratio(Measured)(:1),Catalyst Temperature (Bank 1 Sensor 1)(°C),Engine Coolant Temperature(°C),Engine Load(%),Engine Load(Absolute)(%),Engine Oil Temp(°C),Engine RPM(rpm),Fuel Trim Bank 1 Short Term(%),Intake Air Temperature(°C),Mass Air Flow Rate(g/s),Timing Advance(°)
18-Jun-2020 20:37:17.866,14.66814899,14.67532539,455.79998779,52,34.90196228,23.92156792,35,813.75,-1.5625,35,3.3900001,10.5
18-Jun-2020 20:37:18.856,14.66814899,14.67532539,455.79998779,52,34.90196228,23.92156792,48,813.75,-1.5625,35,3.3900001,10.5
18-Jun-2020 20:37:19.857,14.66814899,14.67532539,455.79998779,52,34.90196228,23.92156792,48,813.75,-1.5625,35,3.3900001,10.5
18-Jun-2020 20:37:20.857,14.69999981,17.81872559,595.70001221,61,35.68627548,22.74509811,48,783,0,36,3.63000011,19
18-Jun-2020 20:37:21.857,14.69999981,17.49931526,595.5,61,41.96078491,27.45098114,48,606.25,0,36,3.54999995,19
18-Jun-2020 20:37:22.856,14.67487717,14.60309982,595.5,61,31.37254906,20,48,768.5,0,36,3.23000002,11
18-Jun-2020 20:37:23.856,14.67487717,14.60309982,595.5,61,31.37254906,20,48,768.5,0,36,3.05999994,11
18-Jun-2020 20:37:24.857,14.67084026,13.65519142,595.09997559,61,34.50980377,22.74509811,48,675.25,-6.25,36,3.1400001,17
18-Jun-2020 20:37:25.856,14.67308331,14.58111858,594.79998779,61,34.11764908,22.74509811,49,695.75,-6.25,36,3.08999991,14
18-Jun-2020 20:37:26.856,14.67398071,14.66949463,594.79998779,61,34.11764908,23.13725471,49,704.25,-6.25,36,3.16000009,11
18-Jun-2020 20:37:27.856,14.71211243,14.67039204,594.59997559,61,100,40.39215851,49,775.5,-6.25,36,2.26999998,2.5
18-Jun-2020 20:37:28.856,14.67891598,16.40291595,594.59997559,61,29.80392265,31.76470566,49,598.25,-2.34375,36,5,11.5
18-Jun-2020 20:37:29.857,13.93960857,12.72298241,594.5,61,66.66666412,54.11764526,49,1005.75,4.6875,36,8.27000046,7
18-Jun-2020 20:37:30.857,13.98491859,14.55016422,594.5,61,97.2549057,60,49,1062.5,6.25,36,13.52999973,7
18-Jun-2020 20:37:31.856,14.56721115,14.31195354,595.09997559,61,36.07843018,21.56862831,49,1654.5,-0.78125,36,8.18999958,28.5
18-Jun-2020 20:37:32.856,14.65155125,15.04677391,595.09997559,61,25.49019623,17.64705849,49,1724.5,-0.78125,36,6.46999979,39
18-Jun-2020 20:37:33.855,14.65468979,14.64661503,595.59997559,62,22.35294151,14.90196037,49,1655.25,0.78125,36,5.23000002,40
18-Jun-2020 20:37:34.857,14.69999981,14.63943768,595.90002441,62,14.50980377,10.5882349,49,1512,0,36,3.06999993,24.5
18-Jun-2020 20:37:35.856,14.69999981,14.63943768,595.90002441,62,14.50980377,10.5882349,49,1512,0,36,3.29999995,24.5
18-Jun-2020 20:37:36.855,14.69999981,19.42205048,596,62,47.05882263,36.47058868,49,570.5,0,36,3.92000008,19
18-Jun-2020 20:37:37.856,14.67801762,14.549716,595.79998779,62,26.27450943,19.6078434,49,972.5,0,36,3.49000001,11
18-Jun-2020 20:37:38.855,14.68071079,13.49997139,595.79998779,62,29.41176605,20,49,926.75,-3.90625,36,3.55999994,19.5
18-Jun-2020 20:37:39.856,14.68071079,13.49997139,595.79998779,62,28.62745094,20,49,811,-3.90625,36,3.36999989,19.5
18-Jun-2020 20:37:40.864,14.66994286,14.59816647,595.59997559,62,22.74509811,15.68627453,50,922.25,-5.46875,36,2.83999991,15.5
18-Jun-2020 20:37:41.855,14.67039204,14.55644512,595.29998779,62,27.05882454,17.25490189,50,789.5,-6.25,36,2.79999995,15.5
18-Jun-2020 20:37:42.856,14.67039204,15.43392277,595.29998779,62,47.84313965,19.6078434,50,713.75,-4.6875,36,2.8599999,17.5
18-Jun-2020 20:37:43.856,14.5236969,16.84255409,595,62,82.35294342,32.94117737,50,897.25,1.5625,37,17.21999931,2.5
18-Jun-2020 20:37:44.855,13.99747849,13.7978487,595,62,83.92156982,32.94117737,50,985.5,6.25,37,17.21999931,13
18-Jun-2020 20:37:45.855,14.42455387,13.63096619,595.09997559,62,31.76470566,22.74509811,50,1470.5,-1.5625,36,6.42999983,27.5
18-Jun-2020 20:37:46.855,14.64661503,14.69461632,595.40002441,62,33.33333206,20.7843132,50,1487.75,-3.90625,36,6.78000021,31
18-Jun-2020 20:37:47.856,14.6721859,14.62822247,595.40002441,62,21.56862831,15.29411793,50,1456,-3.125,36,4.36999989,37.5
18-Jun-2020 20:37:48.855,14.6721859,15.07548523,595.40002441,63,27.05882454,15.29411793,50,1378.25,-2.34375,36,5.03000021,33.5
18-Jun-2020 20:37:49.856,14.68923187,14.4438448,595.70001221,63,26.66666794,20,50,1346.75,-1.5625,36,5.73000002,33
18-Jun-2020 20:37:50.856,14.66500759,15.18449688,595.70001221,63,37.64706039,25.88235283,50,1322.75,-1.5625,36,6.8499999,26.5
18-Jun-2020 20:37:51.856,14.66141891,14.59816647,595.70001221,63,30.19607925,20,50,1406.25,-0.78125,36,6.53999996,27.5
18-Jun-2020 20:37:52.855,14.66545773,14.26440048,595.70001221,63,30.58823586,15.68627453,50,1435.25,-1.5625,36,6.13999987,30
18-Jun-2020 20:37:53.855,14.69999981,15.96776772,595.59997559,63,28.23529434,18.03921509,50,811.75,0,36,3.1500001,21
18-Jun-2020 20:37:54.855,14.69999981,17.04846573,595.59997559,63,27.05882454,18.03921509,50,795.5,0,36,2.86999989,20
18-Jun-2020 20:37:55.856,14.67039204,14.56855679,595.09997559,63,24.31372643,16.47058868,50,824,0,36,2.69000006,14.5
18-Jun-2020 20:37:56.855,14.67039204,14.08405972,595.09997559,63,24.31372643,16.07843208,51,808.5,-2.34375,36,2.69000006,16.5
18-Jun-2020 20:37:57.856,14.67263508,13.9059639,594.59997559,63,31.76470566,22.74509811,51,770,-3.90625,37,3.16000009,18
18-Jun-2020 20:37:58.855,14.67577457,14.50216389,594.09997559,63,40,26.27450943,51,590.5,-4.6875,37,3.17000008,19
18-Jun-2020 20:37:59.856,14.67353249,14.54478168,594.09997559,63,32.15686417,23.52941132,51,741.25,-5.46875,37,3.17000008,8
18-Jun-2020 20:38:00.856,14.67442989,14.38373184,593.5,63,32.15686417,22.35294151,51,735,-5.46875,37,3.25999999,12
18-Jun-2020 20:38:01.856,14.6398859,16.66983986,593.5,63,53.33333588,23.13725471,51,1176.5,0,37,8.52999973,20.5
18-Jun-2020 20:38:02.856,14.83144188,14.48511696,593.5,63,54.11764908,57.25490189,51,1123.25,4.6875,36,7.53000021,9.5
18-Jun-2020 20:38:03.855,14.5506134,14.27023315,593.70001221,64,49.41176605,36.07843018,51,1104,3.90625,36,8.52999973,20.5
18-Jun-2020 20:38:04.855,14.70269108,14.16211796,593.70001221,64,49.41176605,35.68627548,51,1104,3.90625,36,8.52999973,20.5
18-Jun-2020 20:38:05.856,14.67622375,14.61610985,594.29998779,64,34.50980377,22.74509811,51,1393,-3.90625,36,7.11000013,27
18-Jun-2020 20:38:06.856,14.69013023,14.83862019,594.29998779,64,23.52941132,18.43137169,51,1424.75,-3.125,36,4.82000017,35
18-Jun-2020 20:38:07.855,14.67801762,15.1154108,594.5,64,22.35294151,16.07843208,51,1437.25,-1.5625,36,4.38999987,37.5
18-Jun-2020 20:38:08.856,14.69999981,14.87720013,594.79998779,64,16.47058868,11.37254906,51,1406.75,0,36,3.18000007,17
18-Jun-2020 20:38:09.856,14.69999981,14.87720013,594.79998779,64,16.47058868,11.37254906,51,1030.25,0,36,2.47000003,17
18-Jun-2020 20:38:10.855,14.69999981,18.52304077,594.90002441,64,28.23529434,18.8235302,51,724.75,0,36,2.5999999,18
18-Jun-2020 20:38:11.856,14.69999981,15.48865318,594.90002441,64,25.88235283,17.25490189,51,753.25,0,37,2.5,13.5
18-Jun-2020 20:38:12.855,14.67039204,14.5506134,594.70001221,64,24.70588303,16.07843208,51,781,-0.78125,37,2.63000011,14.5
18-Jun-2020 20:38:13.855,14.67263508,14.18589497,594.70001221,64,41.17647171,16.07843208,51,641,-2.34375,37,3.17000008,19
18-Jun-2020 20:38:14.856,14.67801762,14.32944965,594.20001221,64,33.33333206,25.09803963,52,730.75,-3.125,37,3.24000001,18
18-Jun-2020 20:38:15.857,14.67667198,14.26395226,594.20001221,64,28.23529434,20.7843132,52,841.25,-3.90625,37,3.25,11
18-Jun-2020 20:38:16.855,14.67487717,14.46672249,593.59997559,64,38.82352829,24.70588303,52,625,-6.25,37,3.17000008,17
18-Jun-2020 20:38:17.857,14.70224285,15.21500206,593.59997559,64,53.72549057,25.49019623,52,650,-4.6875,37,3.8599999,15
18-Jun-2020 20:38:18.855,14.67577457,14.92789268,593.20001221,64,36.86274719,23.52941132,52,646.5,-3.125,37,3.22000003,14.5
18-Jun-2020 20:38:19.855,14.70448589,14.47255516,592.79998779,64,53.72549057,35.29411697,52,676.5,-3.90625,37,5.17999983,17.5
18-Jun-2020 20:38:20.856,14.23434448,15.16565514,592.79998779,65,69.80392456,57.64706039,52,1295.5,-1.5625,37,12.22000027,7.5
18-Jun-2020 20:38:21.856,14.23434448,15.16565514,593,65,69.80392456,57.64706039,52,1295.5,2.34375,36,12.22000027,18
18-Jun-2020 20:38:22.856,14.74127197,13.97145939,593,65,38.03921509,26.27450943,52,1335.25,-3.90625,36,7.03999996,26
18-Jun-2020 20:38:23.856,14.65065289,15.31414509,593.40002441,65,44.70588303,32.15686417,52,1327.25,-2.34375,36,8.07999992,25
18-Jun-2020 20:38:24.856,14.62104511,14.45461178,593.40002441,65,33.33333206,28.23529434,52,1499.5,-3.90625,36,6.90999985,28
18-Jun-2020 20:38:25.857,14.69999981,14.58111858,593.70001221,65,17.64705849,12.15686321,52,1582,0,36,4.59000015,35.5
18-Jun-2020 20:38:26.855,14.69999981,14.30612183,593.70001221,65,21.17647171,12.15686321,52,1582,0,36,4.59000015,40
18-Jun-2020 20:38:27.856,14.75428104,15.29261112,594,65,57.25490189,30.19607925,53,1564,0,36,11.01000023,27
18-Jun-2020 20:38:28.855,14.62283993,14.52593994,594.20001221,65,38.4313736,38.03921509,53,1665.5,-2.34375,36,12.89000034,30.5
18-Jun-2020 20:38:29.855,14.61386681,14.9090519,594.20001221,65,40,23.92156792,53,1910.75,-1.5625,36,11.67000008,30.5
18-Jun-2020 20:38:30.855,14.61969852,14.59816647,594.5,65,37.64706039,30.98039246,53,2013,-3.125,36,11.51000023,34
18-Jun-2020 20:38:31.856,14.69999981,14.50889301,594.70001221,65,16.07843208,11.37254906,53,1964.5,0,36,4.46000004,35.5
18-Jun-2020 20:38:32.855,14.69999981,17.13684082,594.70001221,65,13.72549057,9.8039217,53,1771,0,36,3.48000002,37
18-Jun-2020 20:38:33.856,14.69999981,20.27934265,594.70001221,65,14.11764717,9.8039217,53,1545.5,0,36,2.95000005,28
18-Jun-2020 20:38:34.855,14.69999981,20.27934265,594.70001221,65,14.90196133,9.8039217,53,1427.75,0,36,3.25999999,23
18-Jun-2020 20:38:35.856,14.69999981,20.27934265,594.29998779,66,29.80392265,18.8235302,54,675.75,0,36,2.6500001,11.5
18-Jun-2020 20:38:36.856,13.63679886,12.16356754,594,66,23.92156982,15.29411793,54,838.75,-4.6875,37,2.70000005,11
18-Jun-2020 20:38:37.856,13.63679886,12.74945068,594,66,26.27450943,17.25490189,54,782.75,-9.375,37,2.68000007,15
18-Jun-2020 20:38:38.856,13.63679886,13.18953514,594,66,25.88235283,17.25490189,54,767.25,-10.15625,37,2.56999993,14
18-Jun-2020 20:38:39.856,13.93646812,12.9629879,593.20001221,66,76.47058868,67.45098114,54,726.5,3.90625,37,8.35000038,4
18-Jun-2020 20:38:40.855,14.18544579,13.25503254,593.20001221,66,54.50980377,35.29411697,54,1295.5,-0.78125,36,9.72999954,22
18-Jun-2020 20:38:41.855,14.60220242,14.46044254,593.20001221,66,13.33333397,10.5882349,54,1851.25,-2.34375,36,3.48000002,32
18-Jun-2020 20:38:42.855,14.67487717,14.10873413,593.40002441,66,16.47058868,18.43137169,54,1894.5,-2.34375,36,4.34000015,17
18-Jun-2020 20:38:43.856,14.68654156,16.07677841,593.40002441,66,32.94117737,21.96078491,54,899,2.34375,36,3.97000003,21
18-Jun-2020 20:38:44.856,14.64078331,14.78927326,593.40002441,66,100,76.07843018,54,931.5,2.34375,36,15.86999989,2.5
18-Jun-2020 20:38:45.856,14.59053898,14.82964706,593.40002441,66,87.84313965,62.74509811,54,1035.75,6.25,36,13.72000027,3
18-Jun-2020 20:38:46.856,14.64392281,14.52593994,593.79998779,66,88.23529816,32.15686417,54,1112.5,3.125,36,14.94999981,5
18-Jun-2020 20:38:47.856,14.68788719,13.07244873,594.70001221,66,29.41176605,20.3921566,54,1045.75,-3.125,36,4.17000008,16
18-Jun-2020 20:38:48.855,14.68115807,13.95889854,594.70001221,66,73.72549438,25.49019623,54,812.75,-4.6875,36,6.40999985,18.5
18-Jun-2020 20:38:49.855,14.74306583,14.078228,595.5,66,73.72549438,94.90196228,54,812.75,-6.25,36,5.11999989,18
18-Jun-2020 20:38:50.856,14.56272602,14.50216389,596.09997559,67,94.90196228,58.4313736,54,1640.75,-5.46875,36,27.70999908,14.5
18-Jun-2020 20:38:51.857,14.35950661,13.70947266,596.09997559,67,84.31372833,61.5686264,55,1180.75,3.90625,36,13.60999966,5
18-Jun-2020 20:38:52.856,14.57438946,14.65783119,597.70001221,67,84.31372833,54.50980377,55,1180.75,3.90625,36,13.60999966,8
18-Jun-2020 20:38:53.856,14.58336258,14.37206745,597.70001221,67,66.27451324,50.19607925,55,2081.5,2.34375,35,21.54999924,23.5
18-Jun-2020 20:38:54.856,14.58964252,15.0988121,599.29998779,67,61.56863022,47.84313583,55,2558.75,-0.78125,35,29.85000038,27
18-Jun-2020 20:38:55.856,14.63136196,14.26260567,600.59997559,67,11.37254906,11.37254906,55,2761.25,0,35,5.01999998,35.5
18-Jun-2020 20:38:56.856,14.6264286,14.45954514,600.59997559,67,73.72549438,28.62745094,55,2032.25,-2.34375,35,14.85999966,28
18-Jun-2020 20:38:57.856,14.69999981,15.15488911,601.40002441,68,16.86274529,11.76470566,55,1921.25,0,35,4.82999992,34
18-Jun-2020 20:38:58.855,14.69999981,15.15488911,601.40002441,68,16.86274529,11.76470566,55,1921.25,0,35,3.73000002,34
18-Jun-2020 20:38:59.856,14.69999981,20.27934265,603,68,23.52941132,17.64705849,56,1009.5,0,35,3.1500001,21
18-Jun-2020 20:39:00.855,14.69999981,20.27934265,603,68,41.96078491,25.09803963,56,594.25,0,35,3.25999999,16
18-Jun-2020 20:39:01.855,13.63679886,14.68833637,603.90002441,68,41.96078491,94.90196228,56,594.25,0,36,3.25999999,19
18-Jun-2020 20:39:02.855,13.59776878,13.69063091,603.90002441,68,100,42.35293961,56,935.25,3.90625,36,11.56000042,6
18-Jun-2020 20:39:03.855,14.23075485,12.67139339,604.79998779,68,70.58823395,49.41176605,56,1276.25,2.34375,36,14.59000015,16
18-Jun-2020 20:39:04.855,14.43397522,14.42590046,605.20001221,68,68.62744904,46.66666794,56,1750.5,0.78125,35,16.60000038,23.5
18-Jun-2020 20:39:05.856,14.59502506,14.37161827,605.20001221,68,55.68627548,41.5686264,56,2212.5,0.78125,35,18.80999947,31
18-Jun-2020 20:39:06.855,14.64482021,14.39584351,606,69,20,8.23529434,56,2469,0,35,3.6099999,35.5
18-Jun-2020 20:39:07.856,14.64482021,14.5506134,606,69,12.94117641,8.23529434,56,2479,0,35,3.6099999,42.5
18-Jun-2020 20:39:08.856,14.6627655,14.41917133,606.90002441,69,25.88235283,17.64705849,56,1791.75,-1.5625,35,6.78000021,40.5
18-Jun-2020 20:39:09.855,14.64526939,14.26395226,607.40002441,69,27.05882454,18.03921509,56,1835.75,-3.125,35,6.90999985,39.5
18-Jun-2020 20:39:10.856,14.6461668,14.15583801,607.40002441,69,25.49019623,18.8235302,56,1910,-4.6875,35,6.86999989,40.5
18-Jun-2020 20:39:11.856,14.69999981,15.45455933,607.90002441,69,17.64705849,11.76470566,57,1906.75,0,35,4.76999998,34
18-Jun-2020 20:39:12.856,14.69999981,20.27934265,607.90002441,69,13.72549057,9.01960754,57,1854,0,35,3.57999992,34.5
18-Jun-2020 20:39:13.855,14.69999981,20.27934265,608.20001221,69,12.54901981,9.01960754,57,1833,0,36,3.1099999,34.5
18-Jun-2020 20:39:14.857,14.69999981,20.27934265,608.20001221,70,12.15686321,8.62745094,57,1734.25,0,36,3.00999999,33
18-Jun-2020 20:39:15.856,14.69999981,20.27934265,608.20001221,70,12.15686321,8.23529434,57,1598.75,0,36,2.75,30
18-Jun-2020 20:39:16.857,14.69999981,20.27934265,608.09997559,70,12.54901981,8.62745094,57,1482.75,0,36,2.58999991,25.5
18-Jun-2020 20:39:17.856,14.69999981,20.27934265,608.09997559,70,12.94117641,10.1960783,57,1482.75,0,36,2.58999991,20.5
18-Jun-2020 20:39:18.856,14.69999981,20.27934265,607.40002441,70,23.13725471,15.29411793,57,837.5,0,36,2.6400001,21
18-Jun-2020 20:39:19.855,14.69999981,20.27934265,606.59997559,70,23.13725471,15.29411793,58,789.5,0,36,2.48000002,18.5
18-Jun-2020 20:39:20.856,13.63679886,14.64661503,606.59997559,70,36.07843018,24.31372643,58,664.75,0,36,3.0999999,15.5
18-Jun-2020 20:39:21.856,13.63679886,13.25503254,605.79998779,70,32.15686417,21.1764698,58,711.25,-3.90625,37,2.96000004,10.5
18-Jun-2020 20:39:22.855,13.63679886,13.69736004,604.90002441,70,30.19607925,20,58,727.5,-3.90625,37,2.93000007,10.5
18-Jun-2020 20:39:23.856,13.63679886,13.45197105,604,70,30.58823586,21.1764698,58,696.25,-4.6875,37,2.8599999,12.5
18-Jun-2020 20:39:24.856,13.54169273,13.07289696,604,70,70.98039246,73.72548676,58,1657,3.90625,37,17.61000061,20.5
18-Jun-2020 20:39:25.856,13.97280502,14.02125549,603.5,70,69.80392456,51.76470566,58,1776,4.6875,36,10.27000046,23
18-Jun-2020 20:39:26.856,14.39584351,15.72821045,603.5,70,62.74509811,43.92156982,58,1992,-2.34375,36,21.32999992,26.5
18-Jun-2020 20:39:27.856,14.58829689,14.43128395,603.29998779,70,46.66666794,37.25490189,58,2244,0.78125,35,16.72999954,33
18-Jun-2020 20:39:28.855,14.69999981,14.01856327,603.09997559,70,10.98039246,9.4117651,58,2253.75,0,35,3.8900001,17
18-Jun-2020 20:39:29.855,14.69999981,17.1839447,603.09997559,70,14.50980377,20.3921566,58,1812,0,35,14.01000023,31
18-Jun-2020 20:39:30.855,14.61924934,14.65199852,602.79998779,70,32.94117737,35.68627548,58,1717.5,-1.5625,35,10.76000023,29.5
18-Jun-2020 20:39:31.855,14.61341763,14.49094868,602.79998779,70,39.2156868,29.41176414,58,1883.25,-3.125,35,10.40999985,32
18-Jun-2020 20:39:32.855,14.61835384,14.7385807,602.70001221,70,36.86274719,34.90196228,58,1941.5,-2.34375,35,11.93000031,34
18-Jun-2020 20:39:33.857,14.59457588,14.25812054,602.59997559,70,64.70588684,53.72549057,58,2146.25,-3.125,35,20.78000069,27.5
18-Jun-2020 20:39:34.856,14.57708168,14.52728558,602.59997559,70,57.64706039,51.76470566,59,2523,-0.78125,35,23.54999924,29
18-Jun-2020 20:39:35.856,14.57708168,14.54522991,602.90002441,70,59.2156868,51.76470566,59,2665.5,0,35,26.12000084,30.5
18-Jun-2020 20:39:36.856,14.40795612,14.9763422,602.90002441,71,84.70588684,66.27451324,59,2100.25,0,34,26.80999947,19
18-Jun-2020 20:39:37.856,14.04189205,13.49503708,603.70001221,71,72.94117737,59.60784149,59,2249.75,3.125,34,27.94000053,21
18-Jun-2020 20:39:38.855,14.52952957,14.37655258,603.70001221,71,47.45098114,32.54901886,59,2467.75,-3.125,34,23.07999992,33
18-Jun-2020 20:39:39.856,14.52952957,14.50799561,604.40002441,71,44.31372452,32.54901886,59,2520.75,-3.125,34,17.04999924,34
18-Jun-2020 20:39:40.855,14.59412861,14.57438946,604.40002441,71,50.98039246,33.33333206,59,2664.25,-3.90625,34,18.20000076,34
18-Jun-2020 20:39:41.856,14.60444546,15.17911339,604.40002441,71,47.45098114,34.90196228,60,2740.75,-2.34375,34,21.96999931,36
18-Jun-2020 20:39:42.855,14.61566067,15.14591599,605.5,72,38.03921509,25.88235283,60,2881,-6.25,33,18.87999916,37.5
18-Jun-2020 20:39:43.856,14.69999981,13.17114162,606.29998779,72,56.47058868,7.84313726,60,2215.5,0,33,18.77000046,18.5
18-Jun-2020 20:39:44.857,13.5609827,13.61840534,606.29998779,72,23.52941132,16.07843208,60,2333,-5.46875,34,7.65999985,45
18-Jun-2020 20:39:45.856,13.9131403,13.72068691,606.79998779,72,17.64705849,14.90196037,61,2334,-6.25,34,6.46999979,47.5
18-Jun-2020 20:39:46.856,14.32496357,14.25184059,607,72,19.6078434,15.68627453,61,2335.75,-3.125,34,7.1500001,47
18-Jun-2020 20:39:47.856,14.32496357,14.38328171,607,73,19.2156868,15.68627453,61,2333.25,-2.34375,34,7.01999998,47
18-Jun-2020 20:39:48.856,14.67577457,14.78030109,607.29998779,73,18.03921509,15.68627453,61,2347.25,-3.90625,34,6.80000019,47
18-Jun-2020 20:39:49.855,14.67128944,15.31549072,607.29998779,73,19.6078434,18.43137169,61,2369.75,0,35,8.25,46
18-Jun-2020 20:39:50.855,14.67039204,14.35950661,607.29998779,73,20,18.43137169,61,2330.5,-1.5625,35,7.05999994,46.5
18-Jun-2020 20:39:51.856,14.58874512,14.01856327,607,73,59.60784531,56.07843018,62,2371,-1.5625,35,22.34000015,28
18-Jun-2020 20:39:52.855,14.58784771,14.52728558,607,73,56.47058868,49.80392075,62,2479.25,-1.5625,35,21.20999908,29
18-Jun-2020 20:39:53.856,14.59951115,14.50934029,607.09997559,73,56.47058868,36.86274338,62,2479.25,-1.5625,34,21.20999908,31
18-Jun-2020 20:39:54.855,14.59681988,14.32989788,607.20001221,73,48.23529434,42.35293961,62,2580.25,-3.90625,34,21.20999908,33
18-Jun-2020 20:39:55.856,14.59009171,14.57483864,607.20001221,74,49.41176605,42.74509811,62,2672,-2.34375,34,22.22999954,33.5
18-Jun-2020 20:39:56.855,14.59547424,14.52728558,607.59997559,74,45.09804153,34.90196228,62,2770,-3.125,33,21.65999985,35.5
18-Jun-2020 20:39:57.856,14.69999981,16.00051498,607.90002441,74,11.76470566,9.01960754,62,2282.75,0,33,4.28999996,39
18-Jun-2020 20:39:58.856,13.55245876,12.16356754,607.90002441,74,24.70588303,18.8235302,63,2282,-11.71875,33,8.51000023,43.5
18-Jun-2020 20:39:59.855,13.55829144,12.90736103,607.90002441,74,23.92156982,17.25490189,63,2263.25,2.34375,33,9.05000019,45
18-Jun-2020 20:40:00.855,14.05893803,13.97729206,608,74,23.92156982,20.7843132,63,2230.25,-4.6875,34,8.77000046,43.5
18-Jun-2020 20:40:01.857,14.53984642,14.00779629,608,74,15.29411793,12.94117641,63,2209.5,-7.03125,34,5.38000011,42
18-Jun-2020 20:40:02.856,14.69999981,14.05490017,607.90002441,75,11.76470566,8.62745094,63,2200.25,0,34,3.98000002,34
18-Jun-2020 20:40:03.857,14.69999981,20.27934265,607.90002441,75,13.33333397,9.8039217,63,2074.75,0,34,4.01999998,35.5
18-Jun-2020 20:40:04.856,14.69999981,20.27934265,607.29998779,75,14.50980377,10.1960783,63,1988.25,0,34,3.97000003,35.5
18-Jun-2020 20:40:05.857,14.69999981,20.27934265,606.59997559,75,14.50980377,9.8039217,63,1878.75,0,35,3.75,36
18-Jun-2020 20:40:06.855,14.69999981,20.27934265,606.59997559,75,14.11764717,9.8039217,64,1799.25,0,35,3.52999997,34.5
18-Jun-2020 20:40:07.856,14.69999981,20.27934265,605.70001221,75,14.11764717,9.8039217,64,1775.75,0,35,3.44000006,35
18-Jun-2020 20:40:08.856,14.69999981,20.27934265,604.59997559,75,12.15686321,8.62745094,63,1670.5,0,35,2.81999993,30
18-Jun-2020 20:40:09.856,14.69999981,20.27934265,604.59997559,75,12.54901981,8.62745094,63,1546.75,0,35,2.69000006,27
18-Jun-2020 20:40:10.855,14.69999981,20.27934265,603.29998779,75,12.54901981,9.01960754,63,1546.75,0,35,2.69000006,24.5
18-Jun-2020 20:40:11.857,13.4811306,12.16356754,603.29998779,75,98.8235321,46.27450943,63,1447.5,-2.34375,35,16.37999916,19.5
18-Jun-2020 20:40:12.855,13.49414062,13.25637817,601.5,75,65.09803772,48.23529434,63,1530.25,3.125,35,13.60999966,22
18-Jun-2020 20:40:13.857,13.9328804,13.01457787,600.70001221,75,34.50980377,22.74509811,63,1573.25,-0.78125,35,7.11000013,25.5
18-Jun-2020 20:40:14.855,14.29670143,12.94055748,600.70001221,75,95.6862793,56.47058868,63,1642.75,-4.6875,34,21.59000015,15
18-Jun-2020 20:40:15.856,14.46403122,15.49942017,600.09997559,75,78.8235321,50.19607925,63,1659,-3.125,34,17.57999992,17
18-Jun-2020 20:40:16.857,14.59323025,14.57528687,600,75,71.76470947,54.11764526,63,1773.75,2.34375,34,19.12000084,22
18-Jun-2020 20:40:17.856,14.60354805,14.46089172,600,75,64.70588684,52.15686417,63,1833.5,0,34,16.62999916,23.5
18-Jun-2020 20:40:18.855,14.61745548,14.71973896,600.09997559,75,54.11764908,47.45098114,64,1883.5,-0.78125,34,18,25.5
18-Jun-2020 20:40:19.856,14.61745548,14.48421955,600.09997559,75,32.54901886,47.45098114,64,1904.25,-3.90625,34,13.82999992,35.5
18-Jun-2020 20:40:20.857,14.66500759,14.79869366,600.79998779,76,30.58823586,25.49019623,64,1895.25,-3.125,33,7.92999983,34.5
18-Jun-2020 20:40:21.855,14.64078331,14.89693928,600.79998779,76,34.11764908,32.15686417,64,1900.75,-0.78125,33,9.14000034,32
18-Jun-2020 20:40:22.856,14.63764286,14.62732506,601.09997559,76,40.7843132,27.84313774,64,1912,-2.34375,34,11.02999973,33
18-Jun-2020 20:40:23.855,14.63809299,14.56855679,601.09997559,76,48.23529434,26.27450943,64,1931.25,-1.5625,34,11.59000015,32.5
18-Jun-2020 20:40:24.857,14.63764286,14.45506001,601.5,76,41.17647171,36.86274338,64,1945.75,-2.34375,34,16.31999969,30.5
18-Jun-2020 20:40:25.855,14.6255312,14.66411114,601.90002441,76,56.07843399,45.09803772,65,1983.75,-0.78125,34,14.73999977,27
18-Jun-2020 20:40:26.855,14.62239075,14.83862019,601.90002441,76,57.64706039,40,65,2024.75,0,34,16.62999916,26.5
18-Jun-2020 20:40:27.856,14.63226032,14.43621922,602.70001221,76,40.7843132,35.29411697,65,2077.75,-0.78125,33,12.38000011,30.5
18-Jun-2020 20:40:28.855,14.64571762,13.9059639,602.70001221,76,27.05882454,16.47058868,65,2119.5,0,33,11.93000031,34
18-Jun-2020 20:40:29.856,14.6502037,14.55106163,603.40002441,77,22.35294151,18.03921509,65,2097.75,-1.5625,33,6.94999981,42.5
18-Jun-2020 20:40:30.855,14.63854122,14.38283443,604,77,33.72549057,24.70588303,65,2053.75,-1.5625,33,9.92000008,35.5
18-Jun-2020 20:40:31.855,14.63495159,15.09746647,604,77,34.11764908,36.47058868,65,2042.25,-2.34375,33,8.48999977,34.5
18-Jun-2020 20:40:32.856,14.62149239,14.42096519,604,77,61.96078491,49.80392075,65,2034.75,-2.34375,33,18.17000008,27
18-Jun-2020 20:40:33.855,14.64482021,14.44922733,604.90002441,77,61.56863022,50.98039246,65,2087.25,0,33,21.10000038,21